Location: Dumpton Point
(51.3500°N, 1.4433°E)
Time: 23:56:12
(UTC+00:00)

Vanguard 1 - Pass Details

Date: 30 September 2022
Orbit: 650 x 3831 km, 34.2° (Epoch: 03 December)

Event Time Altitude Azimuth Distance (km) Brightness Sun altitude
Rises 15:01:09 0° 233° (SW) 6,690 15.9 21.5°
Reaches altitude 10° 15:07:10 10° 223° (SW) 5,092 15.6 20.8°
Maximum altitude 15:17:00 25° 176° (S) 2,950 13.0 19.5°
Drops below altitude 10° 15:23:26 10° 124° (SE) 3,211 12.5 18.6°
Sets 15:26:13 0° 110° (ESE) 3,850 12.8 18.2°
